Regional Weather Roundup
Issued by NWS

Home | Current Version | Previous Version | Text Only | Print | Product List | Glossary Off
Versions: 1 2 3 4 5 6 7 8 9 10 11 12 13 14 15 16 17 18 19 20 21 22 23 24 25 26 27 28 29 30 31 32 33 34 35 36 37 38 39 40 41 42 43 44 45 46 47 48 49 50

000
ASUS43 KMKX 241511
RWRWI

WISCONSIN REGIONAL WEATHER ROUNDUP
NATIONAL WEATHER SERVICE MILWAUKEE/SULLIVAN WI
1000 AM CDT WED AUG 24 2016

NOTE: "FAIR" INDICATES FEW OR NO CLOUDS BELOW 12,000 FEET WITH NO
SIGNIFICANT WEATHER AND/OR OBSTRUCTIONS TO VISIBILITY.

WIZ001-002-006>008-014>016-023>028-241600-
NORTHWEST WISCONSIN

CITY           SKY/WX    TMP DP  RH WIND       PRES   REMARKS
SUPERIOR ARPT  MOSUNNY   73  66  81 W3        29.81R
ASHLAND        CLOUDY    72  66  81 SW6       29.82S
HAYWARD        CLOUDY    69  66  90 CALM      29.84S
SIREN          CLOUDY    69  66  91 W8        29.86R
CUMBERLAND     CLOUDY    68  64  88 W7        29.86S
RICE LAKE      CLOUDY    69  65  89 W7        29.88R
CHETEK         NOT AVBL
LADYSMITH      CLOUDY    69  68  97 SW8       29.86S
EAU CLAIRE     CLOUDY    71  68  90 W7        29.86R
MENOMONIE      CLOUDY    72  68  89 W7        29.87R
NEW RICHMOND   PTSUNNY   72  67  84 NW3       29.88R
OSCEOLA        PTSUNNY   71  71 100 NW3       29.90R
$$

WIZ003>005-009-010-017-018-241600-
NORTH CENTRAL WISCONSIN

CITY           SKY/WX    TMP DP  RH WIND       PRES   REMARKS
MANITOWISH WTR NOT AVBL
ARBOR VITAE    DRIZZLE   67  66  95 SW8       29.84S
WOODRUFF       DRIZZLE   67  66  95 SW8       29.84S
RHINELANDER    CLOUDY    67  67 100 SW10      29.86S FOG
EAGLE RIVER    DRIZZLE   66  66 100 SW6       29.84S
LAND O LAKES   DRIZZLE   67  66  99 S3        29.85F
PHILLIPS       CLOUDY    66  66 100 SW7       29.84R FOG
TOMAHAWK       CLOUDY    65  64  95 CALM      29.86S FOG
MEDFORD        CLOUDY    65  65 100 SW8       29.87S FOG
MERRILL        CLOUDY    67  67 100 SW10G16   29.87S FOG
$$

WIZ029-030-035-036-043>047-241600-
CENTRAL WISCONSIN

CITY           SKY/WX    TMP DP  RH WIND       PRES   REMARKS
WAUSAU         LGT RAIN  67  65  93 SW9       29.85S FOG
MOSINEE        DRIZZLE   66  66 100 SW8       29.88S
MARSHFIELD     LGT RAIN  68  65  90 SW8       29.87S FOG
STEVENS POINT  LGT RAIN  66  66  97 SW13      29.88S
WAUPACA        CLOUDY    72  70  94 S12       29.88S
WAUTOMA        CLOUDY    69  67  93 SW7       29.90R
WISC RAPIDS    CLOUDY    68  68 100 SW8       29.89S
CAMP DOUGLAS   CLOUDY    72  68  88 S14G20    29.88S
$$

WIZ011>013-019>022-031-037>040-048>050-241600-
NORTHEAST WISCONSIN

CITY           SKY/WX    TMP DP  RH WIND       PRES   REMARKS
ANTIGO         CLOUDY    67  66  97 SW9       29.87S
SHAWANO        CLOUDY    70  69  95 SW7       29.86S
OCONTO         NOT AVBL
STURGEON BAY   CLOUDY    70  68  93 SW12      29.86F
GREEN BAY      CLOUDY    70  70 100 SW7       29.86F
MANITOWOC      CLOUDY    72  67  84 SW8G18    29.88F
APPLETON       CLOUDY    70  68  94 SW13      29.87F
CLINTONVILLE   CLOUDY    70  66  88 SW10      29.86S
OSHKOSH        CLOUDY    70  66  87 SW10      29.88S
$$

WIZ032>034-041-042-053>061-241600-
SOUTHWEST WISCONSIN

CITY           SKY/WX    TMP DP  RH WIND       PRES   REMARKS
LA CROSSE      CLOUDY    72 N/A N/A S10       29.87R
SPARTA         CLOUDY    69  67  93 SW5       29.89S
VIROQUA        CLOUDY    68  68 100 S8        29.91S
BOSCOBEL       CLOUDY    74  70  87 SW8       29.90F
PRAIRIE DU CHI CLOUDY    70  69  95 CALM      29.89S
PLATTEVILLE    CLOUDY    72  72 100 SE10      29.92F
$$

WIZ056-057-062-063-064-067-068-241600-
SOUTH CENTRAL WISCONSIN

CITY           SKY/WX    TMP DP  RH WIND       PRES   REMARKS
REEDSBURG      NOT AVBL
BARABOO/DELLS  LGT RAIN  68  65  90 S10       29.91R
LONE ROCK      CLOUDY    72  67  84 SE6       29.90F
MINERAL POINT  CLOUDY    70  70 100 SE9       29.92F
MADISON        CLOUDY    70  66  87 S10       29.92R
MIDDLETON      CLOUDY    72  68  87 S8        29.93S
WATERTOWN      MOSUNNY   71  69  96 S9        29.91R
MONROE         CLOUDY    70  68  94 S10       29.94R
JANESVILLE     CLOUDY    72  72 100 S8        29.92S
$$

WIZ051-052-058>065-066-070>072-241600-
SOUTHEAST WISCONSIN

CITY           SKY/WX    TMP DP  RH WIND       PRES   REMARKS
MILWAUKEE      CLOUDY    74  70  87 S13       29.92F
WAUKESHA       PTSUNNY   70  66  88 S10G18    29.95R
MILWAUKEE/TIMM MOSUNNY   70  66  88 S12       29.94F
RACINE         LGT RAIN  72  69  90 S7        29.96F
BURLINGTON     CLOUDY    69  67  90 SW3       29.95R
KENOSHA        CLOUDY    73  70  90 S9        29.95F
FOND DU LAC    CLOUDY    70  66  87 SW7       29.89S
SHEBOYGAN      CLOUDY    71  67  87 SW9       29.88F
WEST BEND      PTSUNNY   68  64  88 S10       29.90F
JUNEAU         CLOUDY    69  67  93 S12       29.92S
$$

LSZ147-162-241600-
LAKE SUPERIOR

STATION/POSITION TIME  TEMP    WIND        PRES    WAVE
                       AIR SEA DIR/SP/G            HT/PER
                 (UTC) (F)     (DEG/KT/KT) (MB)    (FT/S)
W MID LAKE BUOY  1450   67 67  150/  8/ 10 1008.4F   1
DEVILS ISLAND    1400   70     210/  1/  2 1009.0F
PORT WING        1440   71     200/  3/  5 1009.5S
SAXON HARBOR     1400   70     200/  5/  7 1009.1
$$

LMZ867-665-643>646-241600-
LAKE MICHIGAN

STATION/POSITION TIME  TEMP    WIND        PRES    WAVE
                       AIR SEA DIR/SP/G            HT/PER
                 (UTC) (F)     (DEG/KT/KT) (MB)    (FT/S)
CHAMBERS ISLAND  1400   70     180/  5/ 10 1010.8F
S GREEN BAY BUOY 1400   71 73  190/ 14/ 16 1010.3F
N MID LAKE BUOY  1450   70 70  230/ 14/ 17 1010.1F   5/ 6
NORTHPORT PIER   1400   69     170/  6/ 10 1011.2F
SISTER BAY       1422   71     210/ 11/ 13   N/A
KEWAUNEE LAKESHO 1400   68     210/  5/  7 1011.1F
SHEBOYGAN LAKESH 1500   69     180/  8/  9 1010.8F
PORT WASHINGTON  1400   69     240/  5/ 22 1013.9F
ATWATER BUOY     1500   59 46  180/  8/ 12   N/A
MILWAUKEE LAKESH 1410   68     160/ 15/ 16   N/A
S MID LAKE BUOY  1450   72 75  200/ 17/ 21 1014.2F   5/ 6
KENOSHA   LAKESH 1500   69     180/ 11/ 13 1013.5F
$$

TC  - TEMPERATURE IN CELSIUS
VSB - VISIBILITY IN STATUTE MILES
WCI - WIND CHILL INDEX
HX  - HEAT INDEX





USA.gov is the U.S. government's official web portal to all federal, state and local government web resources and services.